Flag for Chile Weather past 2 weeks in Puerto Williams, Chile

Now
43 °F

Mostly cloudy.


Feels Like: 43 °F
Forecast: 41 / 45 °F
Wind: 1 mph from Southwest

Location: Ushuaia Aerodrome

Current Time: Sep 1, 2014 at 4:16:03 AM

Latest Report: Sep 1, 2014 at 3:00 AM


Visibility: N/A

Pressure: 29.95 "Hg

Humidity: 76%

Dew point: 36 °F

Location of Puerto WilliamsLocation

Historic Weather in Puerto Williams — Graph

°F

Puerto Williams temperature yesterday

Maximum temperature yesterday: 50 °F (at 3:00 PM)
Minimum temperature yesterday: 41 °F (at 12:00 AM)
Average temperature yesterday: 43 °F

Past Weeks' High & Low Weather Summary

 TemperatureHumidityPressure
High50 °F (Aug 31, 3:00 PM)100% (Aug 17, 5:00 AM)30.80 "Hg (Aug 17, 5:00 AM)
Low28 °F (Aug 21, 7:00 AM)39% (Aug 22, 12:00 PM)29.24 "Hg (Aug 17, 11:00 PM)
Average38 °F77%29.95 "Hg
* Reported Aug 17 3:00 AM — Sep 1 3:00 AM, Puerto Williams, Weather by CustomWeather, © 2014

Note: Actual official high and low records may vary slightly from our data, if they occured in-between our weather recording intervals... More about our weather records

Advertising

Puerto Williams weather history for previous 24 hours

 ConditionsComfort  
Time TempWeatherWind HumidityBarometerVisibility
3:00 AM
Sep 1
43 °FMostly cloudy.1 mph76%29.95 "HgN/A
2:00 AM43 °FMostly cloudy.1 mph76%29.95 "HgN/A
1:00 AM43 °FMostly cloudy.5 mph76%29.98 "HgN/A
12:00 AM43 °FMostly cloudy.2 mph76%29.98 "HgN/A
11:00 PM
Aug 31
43 °FScattered showers. Mostly cloudy.5 mph76%29.98 "HgN/A
10:00 PM43 °FScattered showers. Mostly cloudy.5 mph76%29.98 "HgN/A
9:00 PM43 °FScattered showers. Overcast.10 mph76%29.98 "HgN/A
8:00 PM45 °FMostly cloudy.7 mph71%29.98 "HgN/A
7:00 PM45 °FPartly cloudy.7 mph71%29.95 "HgN/A
6:00 PM45 °FPartly cloudy.13 mph71%29.95 "HgN/A
5:00 PM46 °FPartly cloudy.7 mph62%29.95 "HgN/A
4:00 PM46 °FBroken clouds.16 mph62%29.95 "HgN/A
3:00 PM50 °FBroken clouds.15 mph58%29.95 "HgN/A
2:00 PM48 °FScattered clouds.3 mph62%29.95 "HgN/A
1:00 PM45 °FBroken clouds.2 mph71%29.95 "HgN/A
12:00 PM45 °FPartly sunny.6 mph71%29.95 "HgN/A
11:00 AM45 °FPartly sunny.2 mph71%29.95 "HgN/A
10:00 AM43 °FMore clouds than sun.5 mph76%29.95 "HgN/A
9:00 AM41 °FBroken clouds.6 mph81%29.95 "HgN/A
8:00 AM41 °FBroken clouds.2 mph76%29.92 "HgN/A
7:00 AM41 °FBroken clouds.5 mph81%29.92 "HgN/A
6:00 AM41 °FPassing clouds.3 mph81%29.92 "HgN/A
5:00 AM41 °FPassing clouds.2 mph81%29.95 "HgN/A
4:00 AM41 °FPassing clouds.2 mph76%29.95 "HgN/A
Weather by CustomWeather, © 2014

See weather overviewHow to use our weather pages